Regional Weather Roundup
Issued by NWS

Home | Current Version | Previous Version | Text Only | Print | Product List | Glossary On
Versions: 1 2 3 4 5 6 7 8 9 10 11 12 13 14 15 16 17 18 19 20 21 22 23 24 25 26 27 28 29 30 31 32 33 34 35 36 37 38 39 40 41 42 43 44 45 46 47 48 49 50
000
ASUS43 KDMX 192306
RWRIA

WEATHER ROUNDUP FOR IOWA
NATIONAL WEATHER SERVICE DES MOINES IA
500 PM CST SUN FEB 19 2017

NOTE: "FAIR" INDICATES FEW OR NO CLOUDS BELOW 12,000 FEET WITH NO
SIGNIFICANT WEATHER AND/OR OBSTRUCTIONS TO VISIBILITY.

* - THESE STATIONS ARE NOT NWS STATIONS...THUS NOT UNDER NWS
QUALITY CONTROL.  THEY ALSO DO NOT REPORT WEATHER SUCH
AS PRECIPITATION OR FOG.

IAZ001>003-012>014-020>022-031>034-043>046-200000-
   NORTHWEST IOWA

CITY           SKY/WX    TMP DP  RH WIND       PRES   REMARKS
CARROLL *      PTCLDY    66  50  55 S13       29.82S
CHEROKEE *     CLOUDY    61  51  70 S10       29.78S
DENISON *      PTCLDY    64  50  59 S13G18    29.79S
LE MARS *      PTCLDY    63  50  63 S13G22    29.75R
SHELDON *      PTCLDY    59  55  88 S15G22    29.74S
SIOUX CITY     CLOUDY    66  52  60 S16       29.74F
SPENCER        PTCLDY    60  50  69 SE14      29.78F
STORM LAKE *   PTCLDY    61  52  72 S15       29.80F
$$

IAZ055>058-069>071-079>083-090>094-200000-
   SOUTHWEST IOWA

CITY           SKY/WX    TMP DP  RH WIND       PRES   REMARKS
ATLANTIC *     CLEAR     68  50  52 S15       29.83S
CLARINDA *     CLEAR     70  52  52 S15         N/A
COUNCIL BLFS * SUNNY     68  54  60 S14G22    29.81S
CRESTON *      CLEAR     68  48  49 S14G23    29.88R
HARLAN  *      PTCLDY    66  52  59 S15       29.85S
LAMONI           N/A     70  48  45 S12G20    29.88F
RED OAK *      CLEAR     70  52  52 S13G21    29.83S
SHENANDOAH *   SUNNY     70  54  56 S16       29.83S
$$

IAZ047>049-059>061-072>074-084-200000-
   CENTRAL IOWA

CITY           SKY/WX    TMP DP  RH WIND       PRES   REMARKS
AMES           PTCLDY    67  50  54 S12       29.86F
ANKENY *       PTCLDY    68  48  49 S10G21    29.88S
BOONE *        PTCLDY    64  50  59 S14       29.85S
CHARITON *     PTCLDY    68  48  49 S14G23    29.89F
DES MOINES     CLOUDY    70  46  42 S14       29.87F
GRINNELL*      CLEAR     66  46  48 S12       29.91S
KNOXVILLE *    PTCLDY    70  46  43 S16       29.89R
MARSHALLTOWN   CLOUDY    67  49  52 SE12      29.88S
NEWTON *       CLEAR     66  48  52 S14       29.89S
PELLA *        CLEAR     70  46  42 S10       29.91S
PERRY *          N/A     64  44  48 S16       29.84F
$$

IAZ004>006-015-016-023>025-035-036-200000-
   NORTH CENTRAL IOWA

CITY           SKY/WX    TMP DP  RH WIND       PRES   REMARKS
ALGONA *       PTCLDY    61  54  77 SE16      29.84S
CLARION *      PTCLDY    61  55  82 SE14      29.86S
ESTHERVILLE    CLEAR     58  53  84 SE14      29.80F
FORT DODGE *   PTCLDY    64  48  55 S10       29.85F
MASON CITY     CLOUDY    57  50  77 SE10      29.89S
FOREST CITY *    N/A     57  50  77 SE10      29.86F
IOWA FALLS *     N/A     63  52  66 SE9       29.89S
$$

IAZ007>011-017>019-026>030-037>042-050>054-066-200000-
   NORTHEAST IOWA

CITY           SKY/WX    TMP DP  RH WIND       PRES   REMARKS
CEDAR RAPIDS   CLEAR     67  45  45 SE12      29.92F
CHARLES CITY * PTCLDY    59  48  67 SE13      29.91R
CLINTON *      CLOUDY    63  42  46 SE9       29.99F
DECORAH *      MOCLDY    57  43  58 SE13      29.93S
DUBUQUE        PTCLDY    60  41  49 SE6       29.99S
MONTICELLO *   PTCLDY    63  41  45 SE9       29.95F
OELWEIN *      CLOUDY    59  46  63 SE10      29.93S
WATERLOO       CLOUDY    64  44  48 SE12      29.90S
$$

IAZ064-065-067-068-078-200000-
   EAST CENTRAL IOWA

CITY           SKY/WX    TMP DP  RH WIND       PRES   REMARKS
DAVENPORT      CLOUDY    66  40  38 S10       29.98S
IOWA CITY      PTCLDY    68  46  45 SE9       29.95F
MUSCATINE *    PTCLDY    70  45  40 SE6       29.96S
QUAD CITIES    PTCLDY    68  42  38 SE8       29.97S
$$

IAZ062-063-075>077-085>089-095>099-200000-
   SOUTHEAST IOWA

CITY           SKY/WX    TMP DP  RH WIND       PRES   REMARKS
BURLINGTON     CLOUDY    68  47  46 S7        29.96S
FAIRFIELD *    PTCLDY    70  46  43 S13       29.93S
KEOKUK *       CLOUDY    70  46  43 S6        29.96R
OTTUMWA        PTCLDY    69  46  43 S16       29.92R
WASHINGTON *   PTCLDY    70  48  46 S15       29.95S HAZE
$$

ABBREVIATIONS USED IN REMARKS
   TC - TEMPERATURES IN CELSIUS
  WCI - WIND CHILL INDEX
   HX - HEAT INDEX
  VSB - VISIBILITY
$$





USA.gov is the U.S. government's official web portal to all federal, state and local government web resources and services.